When you browse on this site, cookies collect data to enhance your experience and personalize the content and advertising you see.
Visit our Privacy Policy to learn more. By continuing to use the site, you agree to this use of cookies and data.
  • In Österreich
  • Länderverzeichnis
  • Für 7 Tage
  • Wassertemperatur
  • Wetterkarte
  • News
  • Widgets
  • user-avatar
    Anmelden

    Stündliche Wetter Libreville

    Heute, 21 Januar, Dienstag

    Zeit Temperatur Niederschläge Wind Luftdruck Luftfeuchtigkeit
    00:00 +29°C° 0 mm 2 m/S 757 mmHg 84%
    01:00 +29°C° 0 mm 3 m/S 757 mmHg 84%
    02:00 +28°C° 0 mm 2 m/S 757 mmHg 84%
    03:00 +28°C° 0 mm 2 m/S 757 mmHg 84%
    04:00 +28°C° 0 mm 2 m/S 756 mmHg 84%
    05:00 +28°C° 0 mm 2 m/S 757 mmHg 84%
    06:00 +28°C° 0 mm 1 m/S 757 mmHg 85%
    07:00 +28°C° 0 mm 1 m/S 758 mmHg 86%
    08:00 +30°C° 0 mm 1 m/S 758 mmHg 79%
    09:00 +31°C° 0 mm 1 m/S 758 mmHg 72%
    10:00 +33°C° 0 mm 1 m/S 759 mmHg 65%
    11:00 +32°C° 0.3 mm 1 m/S 758 mmHg 66%
    12:00 +32°C° 0.3 mm 2 m/S 757 mmHg 67%
    13:00 +33°C° 0.3 mm 3 m/S 757 mmHg 68%
    14:00 +33°C° 1.2 mm 3 m/S 756 mmHg 69%
    15:00 +33°C° 1.2 mm 3 m/S 756 mmHg 69%
    16:00 +33°C° 1.2 mm 4 m/S 755 mmHg 69%
    17:00 +31°C° 0.4 mm 3 m/S 756 mmHg 74%
    18:00 +30°C° 0.4 mm 3 m/S 756 mmHg 78%
    19:00 +29°C° 0.4 mm 3 m/S 757 mmHg 82%
    20:00 +29°C° 0.1 mm 3 m/S 757 mmHg 83%
    21:00 +29°C° 0.1 mm 3 m/S 758 mmHg 83%
    22:00 +29°C° 0.1 mm 3 m/S 758 mmHg 84%
    23:00 +29°C° 0 mm 3 m/S 758 mmHg 84%

    Morgen, 22 Januar, Mittwoch

    Zeit Temperatur Niederschläge Wind Luftdruck Luftfeuchtigkeit
    00:00 +29°C° 0 mm 3 m/S 758 mmHg 85%
    01:00 +28°C° 0 mm 3 m/S 757 mmHg 85%
    02:00 +28°C° 0 mm 3 m/S 757 mmHg 86%
    03:00 +28°C° 0 mm 3 m/S 757 mmHg 87%
    04:00 +28°C° 0 mm 3 m/S 757 mmHg 88%
    05:00 +28°C° 0 mm 2 m/S 757 mmHg 88%
    06:00 +27°C° 0 mm 2 m/S 758 mmHg 89%
    07:00 +27°C° 0 mm 1 m/S 758 mmHg 89%
    08:00 +29°C° 0.3 mm 1 m/S 758 mmHg 83%
    09:00 +30°C° 0.3 mm 2 m/S 759 mmHg 76%
    10:00 +32°C° 0.3 mm 2 m/S 759 mmHg 69%
    11:00 +34°C° 0 mm 2 m/S 758 mmHg 64%
    12:00 +35°C° 0 mm 2 m/S 758 mmHg 59%
    13:00 +36°C° 0 mm 2 m/S 757 mmHg 54%
    14:00 +35°C° 0 mm 3 m/S 756 mmHg 57%
    15:00 +34°C° 0 mm 4 m/S 756 mmHg 60%
    16:00 +34°C° 0 mm 5 m/S 755 mmHg 63%
    17:00 +33°C° 0.3 mm 5 m/S 756 mmHg 68%
    18:00 +32°C° 0.3 mm 4 m/S 756 mmHg 73%
    19:00 +30°C° 0.3 mm 4 m/S 756 mmHg 78%
    20:00 +29°C° 0.7 mm 4 m/S 757 mmHg 79%
    21:00 +29°C° 0.7 mm 4 m/S 758 mmHg 81%
    22:00 +29°C° 0.7 mm 3 m/S 758 mmHg 82%
    23:00 +29°C° 0 mm 3 m/S 758 mmHg 82%

    übermorgen, 23 Januar, Donnerstag

    Zeit Temperatur Niederschläge Wind Luftdruck Luftfeuchtigkeit
    00:00 +29°C° 0 mm 3 m/S 758 mmHg 83%
    01:00 +29°C° 0 mm 3 m/S 757 mmHg 83%
    02:00 +28°C° 0 mm 3 m/S 757 mmHg 84%
    03:00 +28°C° 0 mm 2 m/S 757 mmHg 84%
    04:00 +28°C° 0 mm 2 m/S 756 mmHg 85%
    05:00 +28°C° 0 mm 1 m/S 757 mmHg 85%
    06:00 +28°C° 0 mm 1 m/S 757 mmHg 85%
    07:00 +28°C° 0 mm 1 m/S 757 mmHg 85%
    08:00 +29°C° 0 mm 1 m/S 758 mmHg 79%
    09:00 +31°C° 0 mm 1 m/S 758 mmHg 73%
    10:00 +32°C° 0 mm 1 m/S 759 mmHg 67%
    11:00 +33°C° 0 mm 1 m/S 758 mmHg 64%
    12:00 +34°C° 0 mm 2 m/S 757 mmHg 62%
    13:00 +34°C° 0 mm 2 m/S 757 mmHg 60%
    14:00 +34°C° 0.1 mm 3 m/S 756 mmHg 61%
    15:00 +34°C° 0.1 mm 3 m/S 756 mmHg 61%
    16:00 +34°C° 0.1 mm 4 m/S 755 mmHg 62%
    17:00 +33°C° 0.2 mm 4 m/S 756 mmHg 67%
    18:00 +31°C° 0.2 mm 3 m/S 756 mmHg 72%
    19:00 +30°C° 0.2 mm 3 m/S 756 mmHg 77%
    20:00 +29°C° 0.4 mm 3 m/S 757 mmHg 79%
    21:00 +29°C° 0.4 mm 3 m/S 757 mmHg 80%
    22:00 +29°C° 0.4 mm 3 m/S 758 mmHg 82%
    23:00 +29°C° 0 mm 3 m/S 757 mmHg 83%

    24 Januar, Freitag

    Zeit Temperatur Niederschläge Wind Luftdruck Luftfeuchtigkeit
    00:00 +29°C° 0 mm 3 m/S 757 mmHg 84%
    01:00 +29°C° 0 mm 3 m/S 757 mmHg 85%
    02:00 +28°C° 0 mm 3 m/S 757 mmHg 85%
    03:00 +28°C° 0 mm 2 m/S 757 mmHg 85%
    04:00 +28°C° 0 mm 2 m/S 756 mmHg 86%
    05:00 +28°C° 0 mm 2 m/S 757 mmHg 86%
    06:00 +28°C° 0 mm 1 m/S 757 mmHg 87%
    07:00 +28°C° 0 mm 1 m/S 757 mmHg 87%
    08:00 +29°C° 0.1 mm 1 m/S 758 mmHg 81%
    09:00 +31°C° 0.1 mm 1 m/S 758 mmHg 74%
    10:00 +31°C° 0.1 mm 0 m/S 758 mmHg 67%
    11:00 +33°C° 0.1 mm 1 m/S 758 mmHg 65%
    12:00 +33°C° 0.1 mm 1 m/S 757 mmHg 62%
    13:00 +35°C° 0.1 mm 2 m/S 757 mmHg 60%
    14:00 +34°C° 0.1 mm 3 m/S 756 mmHg 62%
    15:00 +34°C° 0.1 mm 3 m/S 755 mmHg 64%
    16:00 +33°C° 0.1 mm 4 m/S 755 mmHg 66%
    17:00 +32°C° 0.1 mm 4 m/S 755 mmHg 70%
    18:00 +30°C° 0.1 mm 4 m/S 756 mmHg 74%
    19:00 +30°C° 0.1 mm 4 m/S 756 mmHg 78%
    20:00 +29°C° 0.1 mm 4 m/S 757 mmHg 79%
    21:00 +29°C° 0.1 mm 4 m/S 757 mmHg 80%
    22:00 +29°C° 0.1 mm 3 m/S 758 mmHg 82%
    23:00 +29°C° 0.1 mm 3 m/S 758 mmHg 82%

    25 Januar, Samstag

    Zeit Temperatur Niederschläge Wind Luftdruck Luftfeuchtigkeit
    00:00 +29°C° 0.1 mm 3 m/S 757 mmHg 83%
    01:00 +29°C° 0.1 mm 3 m/S 757 mmHg 84%
    02:00 +28°C° 0 mm 3 m/S 757 mmHg 85%
    03:00 +28°C° 0 mm 3 m/S 757 mmHg 85%
    04:00 +28°C° 0 mm 3 m/S 756 mmHg 86%
    05:00 +28°C° 0 mm 3 m/S 757 mmHg 86%
    06:00 +28°C° 0 mm 2 m/S 757 mmHg 86%
    07:00 +28°C° 0 mm 2 m/S 758 mmHg 87%
    08:00 +29°C° 0.1 mm 2 m/S 758 mmHg 82%
    09:00 +30°C° 0.1 mm 2 m/S 758 mmHg 77%
    10:00 +31°C° 0.1 mm 2 m/S 758 mmHg 72%
    11:00 +32°C° 0.4 mm 2 m/S 758 mmHg 69%
    12:00 +33°C° 0.4 mm 3 m/S 757 mmHg 67%
    13:00 +34°C° 0.4 mm 3 m/S 757 mmHg 65%
    14:00 +33°C° 0.4 mm 3 m/S 756 mmHg 65%
    15:00 +33°C° 0.4 mm 4 m/S 756 mmHg 66%
    16:00 +33°C° 0.4 mm 4 m/S 755 mmHg 67%
    17:00 +31°C° 0 mm 3 m/S 755 mmHg 71%
    18:00 +30°C° 0 mm 3 m/S 756 mmHg 74%
    19:00 +29°C° 0 mm 3 m/S 756 mmHg 78%
    20:00 +29°C° 0 mm 3 m/S 757 mmHg 79%
    21:00 +29°C° 0 mm 3 m/S 757 mmHg 80%
    22:00 +29°C° 0 mm 3 m/S 758 mmHg 81%
    23:00 +29°C° 0 mm 3 m/S 758 mmHg 82%

    26 Januar, Sonntag

    Zeit Temperatur Niederschläge Wind Luftdruck Luftfeuchtigkeit
    00:00 +29°C° 0 mm 3 m/S 758 mmHg 83%
    01:00 +29°C° 0 mm 3 m/S 758 mmHg 83%
    02:00 +28°C° 0 mm 3 m/S 757 mmHg 83%
    03:00 +28°C° 0 mm 3 m/S 757 mmHg 84%
    04:00 +28°C° 0 mm 3 m/S 757 mmHg 84%
    05:00 +28°C° 0 mm 2 m/S 757 mmHg 84%
    06:00 +28°C° 0 mm 2 m/S 758 mmHg 84%
    07:00 +28°C° 0 mm 2 m/S 758 mmHg 84%
    08:00 +29°C° 0 mm 2 m/S 759 mmHg 78%
    09:00 +31°C° 0 mm 2 m/S 759 mmHg 72%
    10:00 +32°C° 0 mm 2 m/S 759 mmHg 67%
    11:00 +33°C° 0.1 mm 3 m/S 759 mmHg 67%
    12:00 +33°C° 0.1 mm 3 m/S 758 mmHg 67%
    13:00 +33°C° 0.1 mm 3 m/S 758 mmHg 67%
    14:00 +33°C° 0.2 mm 4 m/S 757 mmHg 67%
    15:00 +33°C° 0.2 mm 4 m/S 756 mmHg 67%
    16:00 +33°C° 0.2 mm 5 m/S 756 mmHg 67%
    17:00 +32°C° 0.2 mm 4 m/S 756 mmHg 71%
    18:00 +30°C° 0.2 mm 4 m/S 756 mmHg 74%
    19:00 +29°C° 0.2 mm 4 m/S 757 mmHg 78%
    20:00 +29°C° 0.2 mm 3 m/S 757 mmHg 79%
    21:00 +29°C° 0.2 mm 3 m/S 758 mmHg 80%
    22:00 +29°C° 0.2 mm 2 m/S 759 mmHg 81%
    23:00 +29°C° 0.1 mm 2 m/S 759 mmHg 81%
    Mehr zeigen